Home   Weather   Porto Velho   Past weeks

Flag for Brazil Past Weather in Porto Velho, Rondônia, Brazil — Yesterday and Last 2 Weeks

Now
73 °F

Sunny.


Feels Like: 70 °F
Forecast: 74 / 88 °F
Wind: 1 mph from Southwest

Location: Porto Velho Aeroporto

Current Time: Apr 24, 2017 at 7:55:07 am

Latest Report: Apr 24, 2017 at 7:00 am


Visibility: 10 mi

Pressure: 29.89 "Hg

Humidity: 94%

Dew Point: 72 °F

Location of Porto VelhoLocation

Past Weather in Porto Velho — Graph

°F

Porto Velho Temperature Yesterday

Maximum temperature yesterday: 82 °F (at 12:00 pm)
Minimum temperature yesterday: 75 °F (at 12:00 am)
Average temperature yesterday: 78 °F

High & Low Weather Summary for the Past Weeks

 TemperatureHumidityPressure
High90 °F (Apr 10, 3:00 pm)100% (Apr 9, 2:00 pm)29.98 "Hg (Apr 9, 2:00 pm)
Low43 °F (Apr 9, 2:00 pm)22% (Apr 20, 4:00 pm)29.71 "Hg (Apr 9, 4:00 pm)
Average79 °F85%29.86 "Hg
* Reported Apr 9 6:00 am — Apr 24 6:00 am, Porto Velho, Weather by CustomWeather, © 2017

Note: Actual official high and low records may vary slightly from our data, if they occured in-between our weather recording intervals... More about our weather records

Advertising

Porto Velho Weather History for the Previous 24 Hours

Scroll right to see more
 ConditionsComfort  
Time TempWeatherWind HumidityBarometerVisibility
6:00 am
Mon, Apr 24
73 °FPassing clouds.No wind94%29.86 "HgN/A
5:00 am73 °FPassing clouds.1 mph94%29.86 "HgN/A
4:00 am73 °FPassing clouds.1 mph94%29.86 "HgN/A
3:00 am75 °FPassing clouds.1 mph94%29.89 "HgN/A
2:00 am75 °FPassing clouds.2 mph94%29.89 "HgN/A
1:00 am75 °FPassing clouds.5 mph94%29.89 "HgN/A
12:00 am77 °FPassing clouds.3 mph94%29.92 "HgN/A
11:00 pm
Sun, Apr 23
77 °FClear.3 mph94%29.89 "Hg10 mi
10:00 pm77 °FClear.3 mph94%29.89 "Hg10 mi
9:00 pm75 °FClear.No wind94%29.86 "Hg10 mi
8:00 pm75 °FClear.No wind94%29.83 "Hg10 mi
7:00 pm77 °FClear.No wind94%29.80 "Hg10 mi
6:00 pm79 °FPassing clouds.2 mph89%29.80 "HgN/A
5:00 pm82 °FPassing clouds.2 mph74%29.80 "HgN/A
4:00 pm82 °FScattered clouds.3 mph74%29.80 "HgN/A
3:00 pm82 °FBroken clouds.No wind74%29.83 "HgN/A
2:00 pm82 °FBroken clouds.5 mph74%29.89 "HgN/A
1:00 pm82 °FBroken clouds.8 mph74%29.92 "HgN/A
12:00 pm82 °FBroken clouds.7 mph74%29.95 "HgN/A
11:00 am81 °FScattered clouds.6 mph79%29.98 "HgN/A
10:00 am79 °FPartly sunny.6 mph84%29.98 "HgN/A
9:00 am79 °FBroken clouds.5 mph84%29.98 "HgN/A
8:00 am77 °FPartly sunny.3 mph94%29.95 "HgN/A
7:00 am75 °FRain. Fog.3 mphN/AN/A3 mi
Weather by CustomWeather, © 2017

See weather overviewHow to use our weather pages